星链-2462 (STARLINK-2462 )

导读

STARLINK-2462是美国SpaceX公司星链星座的一员,于2021年4月7日发射入轨,属于星链低轨互联网卫星组网部署的组成部分。它运行在近地轨道,依托星链星座整体架构,可为全球偏远、网络覆盖不足区域提供高速卫星互联网接入服务,助力星链实现全球泛在互联的目标,单颗卫星设计寿命超过5年,也是星链大规模星座计划中现役运行的卫星之一。

基本信息
目录编号:
48121
目录名称:
STARLINK-2462
国际标识:
2021-027AF
轨道中心:
EARTH
卫星名称:
星链-2462
卫星全名:
星链-2462 (STARLINK-2462 )
卫星状态:
在轨 (已飞行1983 天)
发射日期:
2021-04-07 UTC
国别 :
美国 (US)
星等 :
--
该卫星已列入 空间交会检测服务 Space Conjunction Data Service (SCDS) ,当前飞行风险评估等级: 无高风险
轨道信息
数据来源 国际轨道数据
星历时间: 2026-09-11T15:10:39+0800
5小时前
查看轨道信息
半长轴: 6848.895km
偏心率: 0.0000995
轨道倾角: 53.160°
近地点辐角 88.600°
升交点赤经 11.165°
平近点角 271.511°
近地点: 470.076km
远地点: 471.44km
周期: 94.014分钟
每日圈数: 15.316941
详细信息
固有亮度:
5
最大亮度:
2.5
卫星平台:
Starlink V1.0
覆盖范围:
全球
运营商:
太空探索技术公司
运营商所在国:
美国
制造商(研发单位):
太空探索技术公司
制造商所在国:
美国
使用方式:
暂无
卫星简介
星链(Starlink)计划是由太空探索技术公司(SpaceX)提出的一个巨型低轨卫星互联网星座项目,计划在2019年至2024年间在太空搭建由约1.2万颗卫星组成的“星链”网络,其中1584颗将部署在地球上空550千米处的近地轨道,并从2020年开始工作。该卫星仍在工作。
2D轨道图
3D轨道图
轨道高度分析图
轨道倾角分析图
轨道综合分析图
查看轨道综合分析图
交会数据列表
事件ID 空间交会对象 最接近时刻(TCA) 交会距离 交会风险概率(CRP) 交会风险指数(CRI) 操作
CDM_260910-094104-812106-523522
2026-09-10T
09:41:19+0000
1.905 km
极远距离
2.633764E-6 低风险 0.43
与全量物体交会距离演化趋势
与全量物体交会风险概率演化趋势